K4VEB Weather Reports


time (UTC)temp
C
wind
direction
speed
KPH
gust
KPH
rain 1hr
cm
rain 24hr
cm
rain mn
cm
humidity
%
barometer
mb
20260510194018 33 219 11.3 12.9 0.00 0.00 0.00 50 1015.0
20260510193512 32 230 9.7 12.9 0.00 0.00 0.00 51 1015.0
20260510193009 32 262 4.8 4.8 0.00 0.00 0.00 51 1015.1
20260510192503 32 267 8.0 12.9 0.00 0.00 0.00 51 1015.0
20260510191959 32 196 12.9 20.9 0.00 0.00 0.00 50 1015.0
20260510191456 32 156 9.7 12.9 0.00 0.00 0.00 50 1015.0
20260510190953 32 272 8.0 11.3 0.00 0.00 0.00 52 1015.1
20260510190450 31 198 11.3 14.5 0.00 0.00 0.00 53 1015.1
20260510185947 31 267 6.4 6.4 0.00 0.00 0.00 54 1015.1
20260510185444 31 173 9.7 11.3 0.00 0.00 0.00 55 1015.1
20260510184941 32 50 3.2 4.8 0.00 0.00 0.00 52 1015.2
20260510184439 32 339 6.4 11.3 0.00 0.00 0.00 51 1015.0
20260510183938 32 291 19.3 27.4 0.00 0.00 0.00 51 1015.2
20260510183436 33 322 6.4 14.5 0.00 0.00 0.00 51 1015.1
20260510182935 34 347 6.4 9.7 0.00 0.00 0.00 48 1014.9
20260510182432 34 216 14.5 16.1 0.00 0.00 0.00 44 1015.0
20260510181928 34 284 9.7 12.9 0.00 0.00 0.00 45 1014.9
20260510181426 34 287 11.3 14.5 0.00 0.00 0.00 45 1014.8
20260510180922 34 279 14.5 20.9 0.00 0.00 0.00 46 1014.9
20260510180419 33 328 8.0 9.7 0.00 0.00 0.00 48 1015.1
20260510175916 33 294 14.5 16.1 0.00 0.00 0.00 48 1014.9
20260510175412 33 256 8.0 16.1 0.00 0.00 0.00 49 1015.1
20260510174908 33 299 1.6 1.6 0.00 0.00 0.00 50 1015.0
20260510174406 33 218 9.7 11.3 0.00 0.00 0.00 51 1015.3
20260510173902 33 319 3.2 4.8 0.00 0.00 0.00 53 1015.3
20260510173358 32 278 6.4 6.4 0.00 0.00 0.00 54 1015.3
20260510172854 32 262 3.2 4.8 0.00 0.00 0.00 55 1015.5
20260510172350 33 300 4.8 4.8 0.00 0.00 0.00 52 1015.5
20260510171847 32 292 3.2 4.8 0.00 0.00 0.00 52 1015.6
20260510171344 32 271 6.4 9.7 0.00 0.00 0.00 57 1015.9
20260510170841 32 267 8.0 9.7 0.00 0.00 0.00 57 1015.7
20260510170337 32 277 9.7 11.3 0.00 0.00 0.00 54 1015.8
20260510165833 32 213 6.4 9.7 0.00 0.00 0.00 53 1015.9
20260510165329 32 244 8.0 11.3 0.00 0.00 0.00 55 1016.0
20260510164827 32 247 9.7 11.3 0.00 0.00 0.00 55 1016.0
20260510164324 32 277 4.8 6.4 0.00 0.00 0.00 54 1016.0
20260510163823 32 316 6.4 9.7 0.00 0.00 0.00 54 1016.1
20260510163320 32 322 3.2 3.2 0.00 0.00 0.00 53 1016.2
20260510162819 32 330 4.8 4.8 0.00 0.00 0.00 56 1016.2
20260510162317 33 229 3.2 4.8 0.00 0.00 0.00 54 1016.5
20260510161813 32 346 1.6 1.6 0.00 0.00 0.00 57 1016.5
20260510161309 32 136 6.4 6.4 0.00 0.00 0.00 57 1016.5
20260510160807 31 233 9.7 12.9 0.00 0.00 0.00 58 1016.4
20260510160303 31 277 9.7 12.9 0.00 0.00 0.00 58 1016.6
20260510155802 31 195 6.4 9.7 0.00 0.00 0.00 59 1016.7
20260510155259 31 346 4.8 9.7 0.00 0.00 0.00 60 1016.5
20260510154754 31 219 9.7 11.3 0.00 0.00 0.00 60 1016.4
20260510154251 31 211 6.4 6.4 0.00 0.00 0.00 60 1016.5
20260510153746 31 238 4.8 6.4 0.00 0.00 0.00 61 1016.5
20260510153242 31 279 4.8 6.4 0.00 0.00 0.00 61 1016.4
20260510152739 31 191 6.4 11.3 0.00 0.00 0.00 60 1016.6
20260510152236 31 210 8.0 12.9 0.00 0.00 0.00 59 1016.2
20260510151732 31 201 6.4 6.4 0.00 0.00 0.00 60 1016.4
20260510151231 31 266 4.8 4.8 0.00 0.00 0.00 62 1016.5
20260510150726 30 163 3.2 4.8 0.00 0.00 0.00 63 1016.6
20260510150221 30 316 3.2 3.2 0.00 0.00 0.00 63 1016.5
20260510145718 30 213 9.7 11.3 0.00 0.00 0.00 64 1016.5
20260510145214 30 243 8.0 11.3 0.00 0.00 0.00 65 1016.5
20260510144711 30 183 4.8 9.7 0.00 0.00 0.00 64 1016.5
20260510144208 30 185 8.0 11.3 0.00 0.00 0.00 65 1016.6
20260510143702 30 239 11.3 12.9 0.00 0.00 0.00 64 1016.4
20260510143159 30 218 8.0 9.7 0.00 0.00 0.00 65 1016.4
20260510142655 30 212 4.8 9.7 0.00 0.00 0.00 66 1016.4
20260510142152 29 149 4.8 6.4 0.00 0.00 0.00 67 1016.2
20260510141649 28 198 9.7 11.3 0.00 0.00 0.00 68 1016.0
20260510141147 28 281 6.4 6.4 0.00 0.00 0.00 68 1016.0
20260510140644 28 203 6.4 9.7 0.00 0.00 0.00 68 1016.0
20260510140143 28 255 8.0 9.7 0.00 0.00 0.00 69 1016.0
20260510135638 27 194 9.7 12.9 0.00 0.00 0.00 71 1016.3
20260510135134 27 244 9.7 12.9 0.00 0.00 0.00 71 1015.9
20260510134631 27 149 4.8 4.8 0.00 0.00 0.00 73 1016.0
20260510134129 27 245 4.8 4.8 0.00 0.00 0.00 72 1016.3
20260510133625 27 300 6.4 6.4 0.00 0.00 0.00 74 1016.0
20260510133120 27 300 6.4 6.4 0.00 0.00 0.00 74 1016.0
20260510132618 27 308 3.2 3.2 0.00 0.00 0.00 76 1016.0
20260510132115 27 341 1.6 3.2 0.00 0.00 0.00 76 1015.8
20260510131612 26 198 4.8 6.4 0.00 0.00 0.00 79 1016.1
20260510131109 26 313 3.2 4.8 0.00 0.00 0.00 79 1016.1
20260510130605 25 194 4.8 4.8 0.00 0.00 0.00 80 1016.0
20260510125559 25 255 4.8 6.4 0.00 0.00 0.00 82 1016.2
20260510125055 25 255 4.8 6.4 0.00 0.00 0.00 82 1015.9
20260510124552 25 217 6.4 6.4 0.00 0.00 0.00 83 1015.9
20260510124049 25 28 3.2 4.8 0.00 0.00 0.00 83 1015.9
20260510123544 25 211 4.8 6.4 0.00 0.00 0.00 84 1015.9
20260510123041 25 310 3.2 4.8 0.00 0.00 0.00 85 1015.7
20260510122537 25 303 1.6 3.2 0.00 0.00 0.00 86 1015.8
20260510122033 25 219 3.2 3.2 0.00 0.00 0.00 86 1015.9
20260510121530 24 347 3.2 4.8 0.00 0.00 0.00 87 1015.7
20260510121027 23 262 3.2 3.2 0.00 0.00 0.00 88 1015.6
20260510120525 23 206 3.2 4.8 0.00 0.00 0.00 88 1015.6
20260510120020 23 6 1.6 3.2 0.00 0.00 0.00 89 1015.5
20260510115517 23 314 4.8 6.4 0.00 0.00 0.00 89 1015.4
20260510115014 23 334 3.2 3.2 0.00 0.00 0.00 90 1015.3
20260510114510 23 57 4.8 4.8 0.00 0.00 0.00 91 1015.3
20260510114006 23 325 4.8 6.4 0.00 0.00 0.00 91 1015.2
20260510113501 23 330 0.0 1.6 0.00 0.00 0.00 91 1014.9
20260510112959 22 332 1.6 3.2 0.00 0.00 0.00 91 1014.7
20260510112456 22 333 0.0 0.0 0.00 0.00 0.00 92 1014.8
20260510111953 22 346 0.0 0.0 0.00 0.00 0.00 92 1014.7
20260510111449 22 344 0.0 0.0 0.00 0.00 0.00 91 1014.7
20260510110945 22 344 0.0 0.0 0.00 0.00 0.00 91 1014.4
20260510110442 22 344 0.0 0.0 0.00 0.00 0.00 91 1014.4
20260510105937 22 344 0.0 0.0 0.00 0.00 0.00 91 1014.3
20260510105432 22 344 0.0 0.0 0.00 0.00 0.00 91 1014.3
20260510104928 22 350 0.0 0.0 0.00 0.00 0.00 91 1014.2
20260510104425 23 351 0.0 1.6 0.00 0.00 0.00 91 1013.9
20260510103921 22 317 1.6 1.6 0.00 0.00 0.00 91 1014.1
20260510103419 23 326 1.6 1.6 0.00 0.00 0.00 91 1014.0
20260510102914 22 330 1.6 1.6 0.00 0.00 0.00 91 1013.9
20260510102410 22 354 1.6 3.2 0.00 0.00 0.00 91 1014.0
20260510101907 22 342 1.6 1.6 0.00 0.00 0.00 92 1013.8
20260510101405 22 231 3.2 3.2 0.00 0.00 0.00 91 1013.7
20260510100903 22 343 1.6 1.6 0.00 0.00 0.00 92 1013.7
20260510100359 22 1 1.6 1.6 0.00 0.00 0.00 91 1013.6
20260510095856 22 358 1.6 1.6 0.00 0.00 0.00 91 1013.6
20260510095350 22 349 0.0 0.0 0.00 0.00 0.00 91 1013.4
20260510094850 22 349 0.0 1.6 0.00 0.00 0.00 91 1013.6
20260510094345 22 319 1.6 3.2 0.00 0.00 0.00 91 1013.5
20260510093842 22 308 1.6 1.6 0.00 0.00 0.00 91 1013.5
20260510093337 22 331 1.6 1.6 0.00 0.00 0.00 91 1013.3
20260510092834 22 327 0.0 1.6 0.00 0.00 0.00 91 1013.4
20260510092330 22 356 0.0 1.6 0.00 0.00 0.00 91 1013.4
20260510091826 22 346 0.0 0.0 0.00 0.00 0.00 91 1013.2
20260510091323 22 356 0.0 1.6 0.00 0.00 0.00 91 1013.4
20260510090820 22 348 0.0 0.0 0.00 0.00 0.00 91 1013.4
20260510090317 22 345 0.0 0.0 0.00 0.00 0.00 91 1013.2
20260510085813 22 340 1.6 3.2 0.00 0.00 0.00 91 1013.0
20260510085312 22 93 3.2 4.8 0.00 0.00 0.00 91 1012.9
20260510084808 22 320 1.6 1.6 0.00 0.00 0.00 91 1013.0
20260510084306 22 353 1.6 1.6 0.00 0.00 0.00 91 1012.9
20260510083802 22 354 1.6 1.6 0.00 0.00 0.00 91 1012.8
20260510083259 22 345 1.6 1.6 0.00 0.00 0.00 91 1012.7
20260510082755 22 348 3.2 3.2 0.00 0.00 0.00 91 1012.8
20260510082251 22 78 1.6 3.2 0.00 0.00 0.00 91 1012.9
20260510081750 22 31 3.2 4.8 0.00 0.00 0.00 91 1012.7
20260510081247 22 347 0.0 0.0 0.00 0.00 0.00 91 1012.9
20260510080742 22 345 1.6 1.6 0.00 0.00 0.00 91 1012.9
20260510080238 22 349 1.6 3.2 0.00 0.00 0.00 91 1013.0
20260510075735 22 345 0.0 1.6 0.00 0.00 0.00 91 1012.9
20260510075233 22 354 1.6 3.2 0.00 0.00 0.00 91 1013.0
20260510074730 22 337 1.6 1.6 0.00 0.00 0.00 91 1012.9
20260510074226 22 349 0.0 0.0 0.00 0.00 0.00 90 1013.2
20260510073722 23 3 3.2 3.2 0.00 0.00 0.00 90 1013.2
20260510073218 23 343 1.6 3.2 0.00 0.00 0.00 90 1013.1
20260510072714 22 356 1.6 3.2 0.00 0.00 0.00 91 1013.2
20260510072211 22 351 0.0 1.6 0.00 0.00 0.00 91 1013.3
20260510071708 22 356 3.2 3.2 0.00 0.00 0.00 91 1013.4
20260510071204 22 1 1.6 3.2 0.00 0.00 0.00 91 1013.4
20260510070702 22 5 3.2 3.2 0.00 0.00 0.00 91 1013.3
20260510070200 22 3 1.6 3.2 0.00 0.00 0.00 91 1013.5
20260510065700 22 352 0.0 0.0 0.00 0.00 0.00 91 1013.3
20260510065156 22 338 3.2 4.8 0.00 0.00 0.00 91 1013.2
20260510064653 22 348 0.0 0.0 0.00 0.00 0.00 91 1013.5
20260510064150 22 353 0.0 0.0 0.00 0.00 0.00 91 1013.5
20260510063647 23 7 0.0 1.6 0.00 0.00 0.00 91 1013.5
20260510063143 23 6 1.6 1.6 0.00 0.00 0.00 91 1013.7
20260510062640 23 204 1.6 3.2 0.00 0.00 0.00 91 1014.0
20260510062136 23 340 0.0 1.6 0.00 0.00 0.00 91 1014.0
20260510061631 23 348 1.6 3.2 0.00 0.00 0.00 91 1014.1
20260510061129 22 340 3.2 3.2 0.00 0.00 0.00 91 1014.2
20260510060625 22 336 1.6 1.6 0.00 0.00 0.00 91 1014.2
20260510060121 22 350 0.0 0.0 0.00 0.00 0.00 91 1014.0
20260510055618 22 353 0.0 0.0 0.00 0.00 0.00 91 1014.1
20260510055116 22 355 0.0 0.0 0.00 0.00 0.00 91 1014.2
20260510054611 22 356 0.0 0.0 0.00 0.00 0.00 90 1014.4
20260510054107 22 351 0.0 0.0 0.00 0.00 0.00 90 1014.4
20260510053606 23 345 0.0 0.0 0.00 0.00 0.00 90 1014.5
20260510053103 22 341 0.0 0.0 0.00 0.00 0.00 90 1014.6
20260510052559 23 351 0.0 0.0 0.00 0.00 0.00 89 1014.4
20260510052056 23 351 0.0 0.0 0.00 0.00 0.00 88 1014.5
20260510051551 23 356 0.0 0.0 0.00 0.00 0.00 88 1014.6
20260510051048 23 350 0.0 0.0 0.00 0.00 0.00 87 1014.7
20260510050546 23 344 0.0 0.0 0.00 0.00 0.00 87 1014.7
20260510050043 23 6 0.0 1.6 0.00 0.00 0.00 87 1014.6
20260510045540 23 13 0.0 1.6 0.00 0.00 0.00 86 1014.5
20260510045035 23 20 1.6 3.2 0.00 0.00 0.00 86 1014.6
20260510044532 23 6 0.0 0.0 0.00 0.00 0.00 86 1014.9
20260510044030 23 8 0.0 0.0 0.00 0.00 0.00 85 1015.0
20260510043526 23 12 0.0 0.0 0.00 0.00 0.00 85 1015.0
20260510043021 23 12 0.0 0.0 0.00 0.00 0.00 84 1015.1
20260510042515 23 19 1.6 1.6 0.00 0.00 0.00 84 1015.1
20260510042010 23 61 3.2 3.2 0.00 0.00 0.00 84 1015.0
20260510041508 23 12 1.6 1.6 0.00 0.00 0.00 84 1015.0
20260510041006 23 37 3.2 3.2 0.00 0.00 0.00 84 1015.1
20260510040502 23 8 0.0 0.0 0.00 0.00 0.00 84 1015.0
20260510035957 23 8 0.0 0.0 0.00 0.00 0.00 84 1015.0
20260510035455 23 9 0.0 0.0 0.00 0.00 0.00 84 1015.1
20260510034953 23 8 0.0 0.0 0.00 0.00 0.00 84 1014.9
20260510034453 23 9 0.0 0.0 0.00 0.00 0.00 85 1014.9
20260510033948 23 5 1.6 1.6 0.00 0.00 0.00 85 1015.1
20260510033444 23 5 0.0 0.0 0.00 0.00 0.00 85 1014.8
20260510032942 23 5 0.0 0.0 0.00 0.00 0.00 85 1015.1
20260510032439 22 5 0.0 0.0 0.00 0.00 0.00 86 1014.9
20260510031939 22 7 0.0 0.0 0.00 0.00 0.00 85 1015.0
20260510031435 22 7 0.0 0.0 0.00 0.00 0.00 85 1014.9
20260510030930 22 7 0.0 0.0 0.00 0.00 0.00 84 1014.8
20260510030426 22 7 0.0 0.0 0.00 0.00 0.00 84 1015.0
20260510025924 23 8 0.0 0.0 0.00 0.00 0.00 83 1014.8
20260510025421 23 8 0.0 0.0 0.00 0.00 0.00 83 1014.5
20260510024919 23 8 0.0 0.0 0.00 0.00 0.00 82 1014.7
20260510024415 23 8 0.0 0.0 0.00 0.00 0.00 82 1014.6
20260510023911 23 8 0.0 1.6 0.00 0.00 0.00 81 1014.7
20260510023407 23 8 0.0 0.0 0.00 0.00 0.00 81 1014.6
20260510022905 23 10 0.0 1.6 0.00 0.00 0.00 80 1014.6
20260510022403 23 10 0.0 1.6 0.00 0.00 0.00 80 1014.4
20260510021902 23 9 0.0 0.0 0.00 0.00 0.00 80 1014.5
20260510021401 23 9 1.6 3.2 0.00 0.00 0.00 80 1014.3
20260510020857 23 11 0.0 1.6 0.00 0.00 0.00 80 1014.6
20260510020352 23 11 0.0 0.0 0.00 0.00 0.00 80 1014.5
20260510015848 23 13 1.6 1.6 0.00 0.00 0.00 80 1014.3
20260510015344 23 9 1.6 1.6 0.00 0.00 0.00 80 1014.3
20260510014839 23 10 1.6 1.6 0.00 0.00 0.00 80 1014.2
20260510014337 23 46 3.2 3.2 0.00 0.00 0.00 80 1014.3
20260510013833 23 356 0.0 0.0 0.00 0.00 0.00 79 1014.3
20260510013329 24 356 0.0 1.6 0.00 0.00 0.00 79 1014.2
20260510012824 24 12 1.6 3.2 0.00 0.00 0.00 79 1014.0
20260510012323 24 19 3.2 3.2 0.00 0.00 0.00 79 1013.8
20260510011819 24 7 1.6 1.6 0.00 0.00 0.00 79 1013.9
20260510011314 24 4 0.0 1.6 0.00 0.00 0.00 78 1013.9
20260510010811 24 347 1.6 1.6 0.00 0.00 0.00 78 1013.9
20260510010308 24 0 1.6 1.6 0.00 0.00 0.00 78 1013.9
20260510005805 24 348 1.6 1.6 0.00 0.00 0.00 78 1013.9
20260510005301 24 353 1.6 1.6 0.00 0.00 0.00 78 1013.9
20260510004759 24 0 1.6 1.6 0.00 0.00 0.00 78 1013.6
20260510004256 24 354 0.0 1.6 0.00 0.00 0.00 78 1013.4
20260510003753 24 7 1.6 3.2 0.00 0.00 0.00 77 1013.6
20260510003250 25 346 3.2 4.8 0.00 0.00 0.00 78 1013.6
20260510002749 25 23 4.8 6.4 0.00 0.00 0.00 78 1013.6
20260510002247 25 2 4.8 4.8 0.00 0.00 0.00 78 1013.3
20260510001743 25 16 4.8 6.4 0.00 0.00 0.00 78 1013.2
20260510001242 25 27 4.8 4.8 0.00 0.00 0.00 78 1013.1
20260510000737 25 344 3.2 3.2 0.00 0.00 0.00 77 1013.2
20260510000234 25 354 3.2 4.8 0.00 0.00 0.00 77 1013.1
20260509235731 25 11 6.4 9.7 0.00 0.00 0.00 76 1013.2
20260509235228 26 4 4.8 4.8 0.00 0.00 0.00 75 1013.1
20260509234723 26 347 4.8 6.4 0.00 0.00 0.00 73 1012.9
20260509234221 27 334 4.8 4.8 0.00 0.00 0.00 71 1012.8
20260509233719 27 333 3.2 4.8 0.00 0.00 0.00 67 1012.7
20260509233216 28 346 3.2 3.2 0.00 0.00 0.00 66 1012.5
20260509232712 28 346 3.2 3.2 0.00 0.00 0.00 66 1012.5
20260509232210 28 198 3.2 4.8 0.00 0.00 0.00 66 1012.6
20260509231706 28 344 4.8 6.4 0.00 0.00 0.00 66 1012.4
20260509231204 28 347 6.4 9.7 0.00 0.00 0.00 65 1012.5
20260509230701 28 343 3.2 3.2 0.00 0.00 0.00 65 1012.4
20260509230157 28 322 4.8 4.8 0.00 0.00 0.00 65 1012.3
20260509225653 28 344 3.2 3.2 0.00 0.00 0.00 64 1012.3
20260509225148 28 348 1.6 3.2 0.00 0.00 0.00 63 1012.3
20260509224644 29 345 1.6 3.2 0.00 0.00 0.00 63 1012.0
20260509224141 29 345 1.6 1.6 0.00 0.00 0.00 62 1012.0
20260509223638 29 346 1.6 3.2 0.00 0.00 0.00 61 1012.0
20260509223136 30 14 3.2 3.2 0.00 0.00 0.00 61 1012.0
20260509222633 30 344 3.2 3.2 0.00 0.00 0.00 59 1011.9
20260509222127 30 345 1.6 1.6 0.00 0.00 0.00 58 1012.0
20260509221624 31 342 3.2 4.8 0.00 0.00 0.00 54 1011.7
20260509221120 31 344 3.2 3.2 0.00 0.00 0.00 52 1011.6
20260509220616 31 328 4.8 4.8 0.00 0.00 0.00 51 1011.6
20260509220113 31 287 9.7 12.9 0.00 0.00 0.00 51 1011.8
20260509215608 31 311 3.2 3.2 0.00 0.00 0.00 52 1011.6
20260509215105 31 282 6.4 14.5 0.00 0.00 0.00 51 1011.4
20260509214602 31 271 9.7 12.9 0.00 0.00 0.00 51 1011.5
20260509214059 32 275 4.8 11.3 0.00 0.00 0.00 51 1011.4
20260509213555 32 304 6.4 6.4 0.00 0.00 0.00 52 1011.4
20260509213052 32 240 11.3 11.3 0.00 0.00 0.00 51 1011.3
20260509212549 32 189 4.8 6.4 0.00 0.00 0.00 51 1011.3
20260509212046 32 246 9.7 12.9 0.00 0.00 0.00 51 1011.0
20260509211541 32 340 1.6 1.6 0.00 0.00 0.00 49 1011.1
20260509211038 32 255 14.5 16.1 0.00 0.00 0.00 49 1011.3
20260509210535 33 330 6.4 11.3 0.00 0.00 0.00 47 1011.1
20260509210032 32 323 3.2 4.8 0.00 0.00 0.00 49 1011.2
20260509205526 32 340 3.2 6.4 0.00 0.00 0.00 50 1011.2
20260509205021 32 291 4.8 4.8 0.00 0.00 0.00 51 1011.2
20260509204518 32 330 3.2 4.8 0.00 0.00 0.00 51 1011.4
20260509204015 32 262 8.0 12.9 0.00 0.00 0.00 52 1011.4
20260509203510 32 220 11.3 14.5 0.00 0.00 0.00 52 1011.3
20260509203010 31 326 1.6 3.2 0.00 0.00 0.00 55 1011.1
20260509202509 31 297 9.7 11.3 0.00 0.00 0.00 57 1011.2
20260509202005 32 256 11.3 14.5 0.00 0.00 0.00 54 1011.3
20260509201500 31 342 3.2 4.8 0.00 0.00 0.00 56 1011.3
20260509200958 31 285 6.4 9.7 0.00 0.00 0.00 55 1011.3
20260509200458 31 244 4.8 4.8 0.00 0.00 0.00 56 1011.4
20260509195954 30 250 6.4 9.7 0.00 0.00 0.00 59 1011.4
20260509195450 30 318 3.2 3.2 0.00 0.00 0.00 61 1011.3
20260509194949 30 283 6.4 9.7 0.00 0.00 0.00 60 1011.5
20260509194445 30 329 3.2 4.8 0.00 0.00 0.00 58 1011.5